Налимск

Россия / Республика Саха (Якутия)     67°35′03″N   153°38′41″E
темп.,
°C
ветер,
м/с
пор.,
м/с
влажн.,
%
обл.,
%
осадки,
мм/ч
давл.,
гПа
погр.,
м
27 февраля, сб
сб2723:00−31з0110093 0.1 103419
02:00−29з0199100 0.1 103419
05:00−31юз1110099 0.1 103319
08:00−32зюз11100100 0.0 103319
11:00−28ююз1197100 0.1 103363
14:00−27зюз1194100 0.0 1032197
17:00−30юз119999 0.0 103219
20:00−32ююз1110077 0.0 103319
28 февраля, вс
вс2823:00−33юз1110081 0.0 103219
02:00−35ююз1110080 0.0 103219
05:00−35юз1110075 0.0 103119
08:00−36ююв0110031 0.0 103119
11:00−32св119522 0.0 103035
14:00−29св22925 0.0 1029182
17:00−32св23959 0.0 102819
20:00−34всв23970 0.0 102819
1 марта, пн
пн123:00−35св22990 0.0 102819
02:00−36св221000 0.0 102619
05:00−37ссв221000 0.0 102619
08:00−38ссз121002 0.0 102519
11:00−34сз11958 0.0 102477
14:00−31зсз229044 0.0 1023268
17:00−32зюз239445 0.0 102221
20:00−35з23970 0.0 102319
2 марта, вт
вт223:00−36юз339825 0.0 102322
02:00−37юз449762 0.0 102445
05:00−38юз449769 0.0 102449
08:00−38юз449765 0.0 102654
11:00−36юз469561 0.0 1026178
14:00−33юз359243 0.0 1026291
17:00−34юз339438 0.0 102730
20:00−37юз23964 0.0 102919
3 марта, ср
ср323:00−38юз23967 0.0 102919
02:00−39юз229747 0.0 103018
05:00−40ююз119955 0.0 102918
08:00−40вюв019922 0.0 102918
11:00−35всв119252 0.0 102882
14:00−33св339188 0.0 1026242
17:00−34св349594 0.0 102377
20:00−35св3397100 0.0 102138